Weather in Pienza

Italy     43°04′39″N   11°40′37″E
temp.,
°C
wind,
m/s
gust,
m/s
humid.,
%
clouds,
%
prec.,
mm/h
press.,
hPa
HPBL,
m
31 july, sat
sat3123:00+22sw22550 0.0 101214
02:00+21ssw11560 0.0 101212
05:00+20s22610 0.0 101114
08:00+24ssw12480 0.0 1011201
11:00+31sw35320 0.0 10101546
14:00+35ssw45250 0.0 10081994
17:00+33ssw56260 0.0 10081291
20:00+26ssw34450 0.0 100894
1 august, sun
sun123:00+20s23760 0.0 101029
02:00+20s3686100 0.0 1009188
05:00+20ssw2392100 0.0 100860
08:00+23ssw388120 0.2 1008575
11:00+30sw611391 0.0 10071742
14:00+31sw812350 0.0 10072245
17:00+30wsw710360 0.0 10082092
20:00+25sw35490 0.0 1008250
2 august, mon
mon223:00+18nw237425 0.0 101264
02:00+16ssw11764 0.0 101213
05:00+16s11710 0.0 101211
08:00+20se21593 0.0 1014284
11:00+27sse12373 0.0 10141648
14:00+30w46255 0.0 10132593
17:00+30w771797 0.0 10132220
20:00+24wnw3538100 0.0 1014169
3 august, tue
tue323:00+17nw116586 0.0 101611
02:00+16s0075100 0.0 101611
05:00+17e1172100 0.0 101612
08:00+20ene115698 0.0 1016161
11:00+28sse123098 0.0 10151287
14:00+24ssw5445100 0.5 1016943
17:00+26wnw35321 0.1 10141628
20:00+23w34390 0.1 101384
4 august, wed
wed423:00+17wsw11606 0.0 101511
02:00+16ssw11645 0.0 101411
05:00+16se1163100 0.0 101411
08:00+21sse1246100 0.0 1014150
11:00+28w34285 0.0 10141623
14:00+30w682691 0.0 10122649
17:00+29w7102919 0.0 10122154
20:00+24wnw4646100 0.0 1013223